Girona, Spain

3:09 AM CEST on July 22, 2018 (GMT +0200)
Girona

Weather History for LEGE - April, 2018

Change the Weather History Date:

Monday, April 16, 2018

  Actual Average Record
Temperature  
Mean Temperature 60 °F -  
Max Temperature 71 °F 70 °F 79 °F (2016)
Min Temperature 49 °F 48 °F 37 °F (1999)
Degree Days  
Heating Degree Days 5    
Growing Degree Days 10 (Base 50)    
Moisture  
Dew Point 50 °F    
Average Humidity 76    
Maximum Humidity 100    
Minimum Humidity 31    
Precipitation  
Precipitation 0.00 in 0.11 in - ()
Sea Level Pressure  
Sea Level Pressure 29.95 in    
Wind  
Wind Speed 3 mph ()    
Max Wind Speed 10 mph    
Max Gust Speed -    
Visibility 6.4 miles    
Events      
Averages and records for this station are not official NWS values.
T = Trace of Precipitation, MM = Missing Value Source: Averaged Metar Reports

Daily Weather History Graph

Daily Weather History Graph

Search for Another Location

Airport or City:

Astronomy

Apr. 16, 2018 Rise Set
Actual Time 7:07 AM CEST 8:30 PM CEST
Civil Twilight 6:38 AM CEST 8:59 PM CEST
Nautical Twilight 6:03 AM CEST 9:34 PM CEST
Astronomical Twilight 5:26 AM CEST 10:11 PM CEST
Moon 7:41 AM CEST (4/16) 9:02 PM CEST (4/16)
Length of Visible Light 14h 21m
Length of Day
13h 23m
New Moon, 0% of the Moon is Illuminated
Apr 16
New Moon
Apr 22
First Quarter
Apr 30
Full
May 8
Last Quarter
May 15
New

Hourly Weather History & Observations

Time (CEST) Temp. Dew Point Humidity Pressure Visibility Wind Dir Wind Speed Gust Speed Precip Events Conditions
12:00 AM 55 °F 51 °F 82% 29.92 in - Calm Calm - -  
12:00 AM 55.4 °F 51.8 °F 88% 29.92 in 6.2 mi Calm Calm - N/A   Partly Cloudy
12:30 AM 55.4 °F 50.0 °F 82% 29.92 in 6.2 mi Calm Calm - N/A   Partly Cloudy
1:00 AM 51.8 °F 50.0 °F 94% 29.92 in 6.2 mi Variable 1.2 mph - N/A   Partly Cloudy
1:30 AM 53.6 °F 50.0 °F 88% 29.92 in 6.2 mi NNE 1.2 mph - N/A   Partly Cloudy
2:00 AM 51 °F 48 °F 87% 29.91 in 12 mi West 3.5 mph - -   Scattered Clouds
2:00 AM 50.0 °F 48.2 °F 94% 29.92 in 6.2 mi West 3.5 mph - N/A   Partly Cloudy
2:30 AM 50.0 °F 50.0 °F 100% 29.92 in 6.2 mi West 3.5 mph - N/A   Partly Cloudy
3:00 AM 50.0 °F 50.0 °F 100% 29.92 in 6.2 mi Variable 1.2 mph - N/A   Partly Cloudy
3:30 AM 50.0 °F 50.0 °F 100% 29.89 in 6.2 mi NNE 3.5 mph - N/A   Partly Cloudy
4:00 AM 50 °F 48 °F 89% 29.89 in - North 3.5 mph - -  
4:00 AM 50.0 °F 50.0 °F 100% 29.89 in 6.2 mi North 4.6 mph - N/A   Partly Cloudy
4:30 AM 48.2 °F 48.2 °F 100% 29.89 in 6.2 mi Variable 2.3 mph - N/A   Partly Cloudy
5:00 AM 50.0 °F 50.0 °F 100% 29.89 in 6.2 mi Calm Calm - N/A   Partly Cloudy
5:30 AM 50.0 °F 50.0 °F 100% 29.89 in 6.2 mi Variable 1.2 mph - N/A   Partly Cloudy
6:00 AM 51 °F 49 °F 90% 29.89 in - Calm Calm - -  
6:00 AM 51.8 °F 51.8 °F 100% 29.89 in 6.2 mi South 1.2 mph - N/A   Scattered Clouds
6:30 AM 50.0 °F 50.0 °F 100% 29.89 in 6.2 mi West 3.5 mph - N/A   Scattered Clouds
7:00 AM 51 °F 49 °F 88% 29.89 in - Calm Calm - -  
7:00 AM 51.8 °F 50.0 °F 94% 29.89 in 6.2 mi Calm Calm - N/A   Partly Cloudy
7:30 AM 50.0 °F 50.0 °F 100% 29.89 in 6.2 mi NNE 3.5 mph - N/A   Partly Cloudy
8:00 AM 51 °F 49 °F 91% 29.90 in 12 mi NNE 4.6 mph - -   Scattered Clouds
8:00 AM 50.0 °F 50.0 °F 100% 29.89 in 6.2 mi NNE 3.5 mph - N/A   Partly Cloudy
8:30 AM 51.8 °F 51.8 °F 100% 29.92 in 6.2 mi Variable 2.3 mph - N/A   Partly Cloudy
9:00 AM 54 °F 52 °F 90% 29.91 in - North 2.3 mph - -  
9:00 AM 53.6 °F 51.8 °F 94% 29.92 in 6.2 mi Variable 1.2 mph - N/A   Scattered Clouds
9:30 AM 55.4 °F 51.8 °F 88% 29.92 in 6.2 mi Variable 1.2 mph - N/A   Scattered Clouds
10:00 AM 59 °F 54 °F 78% 29.91 in - NNE 2.3 mph - -  
10:30 AM 60.8 °F 53.6 °F 77% 29.92 in 6.2 mi NNE 5.8 mph - N/A   Partly Cloudy
11:00 AM 62 °F 53 °F 66% 29.92 in - NNE 6.9 mph - -  
11:00 AM 60.8 °F 51.8 °F 72% 29.95 in 6.2 mi NNE 6.9 mph - N/A   Partly Cloudy
11:30 AM 62.6 °F 51.8 °F 68% 29.95 in 6.2 mi North 5.8 mph - N/A   Partly Cloudy
12:00 PM 62.6 °F 53.6 °F 72% 29.95 in 6.2 mi NNE 5.8 mph - N/A   Partly Cloudy
12:30 PM 64.4 °F 51.8 °F 64% 29.95 in 6.2 mi NNE 6.9 mph - N/A   Partly Cloudy
1:00 PM 66.2 °F 48.2 °F 52% 29.95 in 6.2 mi NE 9.2 mph - N/A   Partly Cloudy
1:30 PM 66.2 °F 48.2 °F 52% 29.95 in 6.2 mi ENE 9.2 mph - N/A   Partly Cloudy
2:00 PM 68 °F 48 °F 37% 29.93 in - NE 10.4 mph - -  
2:00 PM 66.2 °F 48.2 °F 52% 29.95 in 6.2 mi NE 9.2 mph - N/A   Partly Cloudy
2:30 PM 68.0 °F 50.0 °F 52% 29.95 in 6.2 mi ENE 8.1 mph - N/A   Scattered Clouds
3:00 PM 70 °F 47 °F 33% 29.93 in - ENE 8.1 mph - -  
3:00 PM 68.0 °F 48.2 °F 49% 29.95 in 6.2 mi ENE 6.9 mph - N/A   Scattered Clouds
3:30 PM 68.0 °F 48.2 °F 49% 29.95 in 6.2 mi NE 8.1 mph - N/A   Scattered Clouds
4:00 PM 71 °F 47 °F 31% 29.94 in - ESE 5.8 mph - -  
4:00 PM 69.8 °F 46.4 °F 43% 29.95 in 6.2 mi ESE 4.6 mph - N/A   Scattered Clouds
4:30 PM 68.0 °F 44.6 °F 43% 29.98 in 6.2 mi ESE 4.6 mph - N/A   Scattered Clouds
5:00 PM 68 °F 52 °F 47% 29.95 in - South 9.2 mph - -  
5:00 PM 66.2 °F 51.8 °F 60% 29.98 in 6.2 mi South 8.1 mph - N/A   Scattered Clouds
5:30 PM 64.4 °F 51.8 °F 64% 29.98 in 6.2 mi SSW 8.1 mph - N/A   Scattered Clouds
6:00 PM 65 °F 53 °F 56% 29.97 in - SSW 8.1 mph - -  
6:00 PM 64.4 °F 53.6 °F 68% 29.98 in 6.2 mi SSW 9.2 mph - N/A   Scattered Clouds
6:30 PM 62.6 °F 53.6 °F 72% 29.98 in 6.2 mi SW 8.1 mph - N/A   Scattered Clouds
7:00 PM 63 °F 51 °F 56% 29.99 in - WSW 5.8 mph - -  
7:00 PM 62.6 °F 51.8 °F 68% 30.01 in 6.2 mi WSW 4.6 mph - N/A   Scattered Clouds
7:30 PM 60.8 °F 51.8 °F 72% 30.01 in 6.2 mi SW 4.6 mph - N/A   Scattered Clouds
8:00 PM 61 °F 52 °F 63% 30.00 in - SSW 4.6 mph - -  
8:30 PM 59.0 °F 50.0 °F 72% 30.01 in 6.2 mi SSW 5.8 mph - N/A   Partly Cloudy
9:00 PM 58 °F 51 °F 70% 30.02 in - SSW 5.8 mph - -  
9:00 PM 57.2 °F 50.0 °F 77% 30.04 in 6.2 mi SSW 4.6 mph - N/A   Partly Cloudy
9:30 PM 55.4 °F 50.0 °F 82% 30.04 in 6.2 mi WSW 4.6 mph - N/A   Partly Cloudy
10:00 PM 53.6 °F 50.0 °F 88% 30.04 in 6.2 mi WSW 3.5 mph - N/A   Partly Cloudy
10:30 PM 53.6 °F 50.0 °F 88% 30.06 in 6.2 mi SSW 1.2 mph - N/A   Partly Cloudy
11:00 PM 51.8 °F 48.2 °F 88% 30.06 in 6.2 mi Calm Calm - N/A   Partly Cloudy
11:30 PM 51.8 °F 50.0 °F 94% 30.06 in 6.2 mi Variable 2.3 mph - N/A   Partly Cloudy